Regional Weather Roundup
Issued by NWS

Home | Current Version | Previous Version | Graphics & Text | Print | Product List | Glossary On
Versions: 1 2 3 4 5 6 7 8 9 10 11 12 13 14 15 16 17 18 19 20 21 22 23 24 25 26 27 28 29 30 31 32 33 34 35 36 37 38 39 40 41 42 43 44 45 46 47 48 49 50
000
ASUS43 KTOP 231059
RWRKS

WEATHER ROUNDUP FOR KANSAS
NATIONAL WEATHER SERVICE GOODLAND KS
600 AM CDT WED APR 23 2014

NOTE:  "FAIR" INDICATES FEW OR NO CLOUDS BELOW 12,000 FEET WITH NO
SIGNIFICANT WEATHER AND/OR OBSTRUCTIONS TO VISIBILITY.

KSZ001>006-013>018-027>032-041>047-231200-
NORTHWEST KANSAS

CITY           SKY/WX    TMP DP  RH WIND       PRES   REMARKS
GOODLAND       CLOUDY    60  41  49 S24G31    29.61F
HAYS           MOCLDY    55  37  50 S15       29.76R
HILL CITY      CLOUDY    57  41  55 S12G22    29.70F
RUSSELL        PTCLDY    57  35  43 SE23      29.75F
$$

KSZ061>065-074>080-084>089-231200-
SOUTHWEST KANSAS

CITY           SKY/WX    TMP DP  RH WIND       PRES   REMARKS
DODGE CITY     PTCLDY    58  46  64 S18G30    29.76F
ELKHART          N/A     59  36  42 S16         N/A
GARDEN CITY    CLOUDY    62  46  55 S22G29    29.73F
GREAT BEND     PTCLDY    57  34  41 SE18      29.78S
LIBERAL        MOCLDY    59  43  55 E15       29.78F
$$

KSZ066>073-081>083-090>101-231200-
SOUTHEAST KANSAS

CITY           SKY/WX    TMP DP  RH WIND       PRES   REMARKS
CHANUTE        MOCLDY    54  37  52 E12       29.94F
COFFEYVILLE    MOCLDY    47  40  76 N7        29.94R
HUTCHINSON     CLOUDY    58  34  40 SE16      29.84F
NEWTON         MOCLDY    54  34  47 SE13      29.90F
PARSONS        MOCLDY    54  37  52 E6        29.96R
WICHITA INTL   MOCLDY    57  36  45 SE20      29.86F
WICHITA JABRA  MOCLDY    55  38  52 SE10      29.87F
$$

KSZ007>012-019>026-033>040-048>060-102>105-231200-
NORTHEAST KANSAS

CITY           SKY/WX    TMP DP  RH WIND       PRES   REMARKS
CONCORDIA      CLOUDY    55  40  56 SE14      29.84S
EMPORIA        MOCLDY    54  37  52 SE12      29.92F
LAWRENCE       LGT RAIN  55  38  52 SE16      29.96F
MANHATTAN      LGT RAIN  57  41  55 E3        29.90F
OLATHE IND     CLOUDY    53  37  54 SE10      29.99F
OLATHE EXE     MOCLDY    53  35  50 SE9       29.99S
SALINA         CLOUDY    57  36  45 SE16      29.84F
TOPEKA BILLARD CLOUDY    57  38  48 SE8       29.96R
TOPEKA FORBES  CLOUDY    56  35  45 SE13      29.96R
$$



USA.gov is the U.S. government's official web portal to all federal, state and local government web resources and services.